| time (UTC) | temp C | wind direction | speed KPH | gust KPH | rain 1hr cm | rain 24hr cm | rain mn cm | humidity % | barometer mb |
| 20260504173448 | 14 | 216 | 4.8 | 16.1 | 0.00 | 0.10 | 0.00 | 83 | 1014.4 |
| 20260504172951 | 14 | 277 | 4.8 | 16.1 | 0.00 | 0.10 | 0.00 | 82 | 1014.4 |
| 20260504172448 | 14 | 283 | 4.8 | 17.7 | 0.00 | 0.10 | 0.00 | 82 | 1014.4 |
| 20260504171920 | 14 | 253 | 4.8 | 17.7 | 0.00 | 0.10 | 0.00 | 82 | 1014.4 |
| 20260504170802 | 14 | 276 | 4.8 | 17.7 | 0.00 | 0.10 | 0.00 | 82 | 1014.2 |
| 20260504160413 | 14 | 301 | 8.0 | 17.7 | 0.00 | 0.10 | 0.00 | 80 | 1013.8 |
| 20260504151004 | 14 | 270 | 8.0 | 22.5 | 0.00 | 0.10 | 0.00 | 79 | 1013.5 |
| 20260504150450 | 14 | 315 | 8.0 | 19.3 | 0.00 | 0.10 | 0.00 | 79 | 1013.5 |
| 20260504141257 | 15 | 204 | 8.0 | 19.3 | 0.00 | 0.10 | 0.00 | 79 | 1013.1 |
| 20260504140737 | 15 | 204 | 8.0 | 19.3 | 0.00 | 0.10 | 0.00 | 79 | 1013.1 |
| 20260504140228 | 15 | 262 | 8.0 | 19.3 | 0.00 | 0.10 | 0.00 | 79 | 1013.1 |
| 20260504130517 | 15 | 316 | 8.0 | 20.9 | 0.00 | 0.10 | 0.10 | 78 | 1012.8 |
| 20260504110534 | 15 | 321 | 3.2 | 17.7 | 0.10 | 0.10 | 0.10 | 79 | 1011.5 |
| 20260504100601 | 15 | 46 | 8.0 | 24.1 | 0.00 | 0.00 | 0.00 | 76 | 1010.7 |
| 20260504081847 | 15 | 295 | 6.4 | 20.9 | 0.00 | 0.00 | 0.00 | 77 | 1009.4 |
| 20260504081351 | 15 | 16 | 6.4 | 20.9 | 0.00 | 0.00 | 0.00 | 76 | 1009.3 |
| 20260504080853 | 16 | 43 | 8.0 | 20.9 | 0.00 | 0.00 | 0.00 | 76 | 1009.3 |
| 20260504080347 | 16 | 348 | 8.0 | 20.9 | 0.00 | 0.00 | 0.00 | 76 | 1009.2 |
| 20260504070352 | 16 | 279 | 11.3 | 29.0 | 0.00 | 0.00 | 0.00 | 75 | 1008.5 |
| 20260504060228 | 18 | 84 | 11.3 | 32.2 | 0.00 | 0.00 | 0.00 | 64 | 1007.9 |
| 20260504050528 | 18 | 286 | 12.9 | 27.4 | 0.00 | 0.00 | 0.00 | 61 | 1008.1 |
| 20260504050014 | 18 | 15 | 12.9 | 30.6 | 0.00 | 0.00 | 0.00 | 62 | 1007.9 |
| 20260504045518 | 18 | 323 | 12.9 | 30.6 | 0.00 | 0.00 | 0.00 | 61 | 1007.9 |
| 20260504045015 | 18 | 326 | 12.9 | 30.6 | 0.00 | 0.00 | 0.00 | 61 | 1007.9 |
| 20260504044515 | 18 | 318 | 12.9 | 30.6 | 0.00 | 0.00 | 0.00 | 61 | 1008.0 |
| 20260504044017 | 18 | 328 | 11.3 | 22.5 | 0.00 | 0.00 | 0.00 | 62 | 1008.0 |
| 20260504042837 | 18 | 303 | 9.7 | 29.0 | 0.00 | 0.00 | 0.00 | 61 | 1008.2 |
| 20260504041723 | 18 | 2 | 11.3 | 29.0 | 0.00 | 0.00 | 0.00 | 61 | 1008.1 |
| 20260504041232 | 18 | 342 | 9.7 | 29.0 | 0.00 | 0.00 | 0.00 | 60 | 1008.0 |
| 20260504040127 | 19 | 305 | 9.7 | 25.7 | 0.00 | 0.00 | 0.00 | 59 | 1008.2 |
| 20260504035017 | 18 | 169 | 9.7 | 32.2 | 0.00 | 0.00 | 0.00 | 59 | 1008.2 |
| 20260504034506 | 18 | 332 | 11.3 | 32.2 | 0.00 | 0.00 | 0.00 | 59 | 1008.2 |
| 20260504032052 | 18 | 14 | 9.7 | 27.4 | 0.00 | 0.00 | 0.00 | 59 | 1008.3 |
| 20260504031544 | 18 | 43 | 9.7 | 27.4 | 0.00 | 0.00 | 0.00 | 57 | 1008.2 |
| 20260504031039 | 18 | 327 | 9.7 | 27.4 | 0.00 | 0.00 | 0.00 | 59 | 1008.3 |
| 20260504030536 | 18 | 281 | 12.9 | 27.4 | 0.00 | 0.00 | 0.00 | 58 | 1008.3 |
| 20260504030041 | 18 | 345 | 12.9 | 25.7 | 0.00 | 0.00 | 0.00 | 59 | 1008.3 |
| 20260504025527 | 18 | 351 | 11.3 | 27.4 | 0.00 | 0.00 | 0.00 | 60 | 1008.6 |
| 20260504025013 | 18 | 305 | 12.9 | 27.4 | 0.00 | 0.00 | 0.00 | 60 | 1008.6 |
| 20260504024518 | 18 | 346 | 9.7 | 29.0 | 0.00 | 0.00 | 0.00 | 60 | 1008.5 |
| 20260504024027 | 18 | 273 | 9.7 | 29.0 | 0.00 | 0.00 | 0.00 | 61 | 1008.7 |
| 20260504023523 | 18 | 318 | 11.3 | 33.8 | 0.00 | 0.00 | 0.00 | 61 | 1008.9 |
| 20260504023013 | 18 | 320 | 8.0 | 33.8 | 0.00 | 0.00 | 0.00 | 61 | 1008.9 |
| 20260504022511 | 18 | 315 | 9.7 | 33.8 | 0.00 | 0.00 | 0.00 | 62 | 1008.9 |
| 20260504021955 | 18 | 342 | 9.7 | 33.8 | 0.00 | 0.00 | 0.00 | 62 | 1009.1 |
| 20260504021440 | 18 | 349 | 9.7 | 27.4 | 0.00 | 0.00 | 0.00 | 62 | 1009.2 |
| 20260504020948 | 18 | 300 | 9.7 | 25.7 | 0.00 | 0.00 | 0.00 | 63 | 1009.2 |
| 20260504020447 | 18 | 350 | 9.7 | 22.5 | 0.00 | 0.00 | 0.00 | 62 | 1009.3 |
| 20260504015927 | 18 | 333 | 9.7 | 22.5 | 0.00 | 0.00 | 0.00 | 62 | 1009.4 |
| 20260504015408 | 18 | 48 | 11.3 | 29.0 | 0.00 | 0.00 | 0.00 | 63 | 1009.5 |
| 20260504014916 | 17 | 4 | 9.7 | 29.0 | 0.00 | 0.00 | 0.00 | 63 | 1009.7 |
| 20260504014419 | 17 | 322 | 9.7 | 30.6 | 0.00 | 0.00 | 0.00 | 64 | 1009.7 |
| 20260504013915 | 17 | 290 | 11.3 | 30.6 | 0.00 | 0.00 | 0.00 | 64 | 1009.7 |
| 20260504012742 | 17 | 338 | 9.7 | 25.7 | 0.00 | 0.00 | 0.00 | 64 | 1009.8 |
| 20260504012225 | 17 | 11 | 8.0 | 27.4 | 0.00 | 0.00 | 0.00 | 66 | 1009.7 |
| 20260504011706 | 17 | 25 | 11.3 | 27.4 | 0.00 | 0.03 | 0.00 | 66 | 1009.8 |
| 20260504011149 | 17 | 276 | 9.7 | 33.8 | 0.00 | 0.03 | 0.00 | 67 | 1009.6 |
| 20260504010636 | 17 | 18 | 11.3 | 33.8 | 0.00 | 0.08 | 0.00 | 67 | 1009.6 |
| 20260504005526 | 16 | 7 | 12.9 | 33.8 | 0.00 | 0.10 | 0.00 | 67 | 1009.8 |
| 20260504005023 | 16 | 20 | 12.9 | 27.4 | 0.00 | 0.10 | 0.00 | 68 | 1009.8 |
| 20260504004526 | 16 | 332 | 11.3 | 27.4 | 0.00 | 0.10 | 0.00 | 67 | 1010.0 |
| 20260504004017 | 17 | 2 | 11.3 | 27.4 | 0.00 | 0.13 | 0.00 | 67 | 1009.9 |
| 20260504002849 | 17 | 345 | 9.7 | 32.2 | 0.00 | 0.20 | 0.00 | 70 | 1009.7 |
| 20260504002346 | 16 | 341 | 11.3 | 32.2 | 0.00 | 0.28 | 0.00 | 70 | 1009.8 |
| 20260504001842 | 16 | 101 | 12.9 | 32.2 | 0.00 | 0.28 | 0.00 | 70 | 1009.8 |
| 20260504001336 | 16 | 39 | 11.3 | 30.6 | 0.00 | 0.36 | 0.00 | 70 | 1009.9 |
| 20260504000827 | 16 | 26 | 9.7 | 30.6 | 0.00 | 0.43 | 0.00 | 70 | 1009.9 |
| 20260503235049 | 16 | 42 | 9.7 | 27.4 | 0.00 | 0.61 | 0.00 | 71 | 1009.9 |
| 20260503234558 | 16 | 260 | 9.7 | 27.4 | 0.00 | 0.64 | 0.00 | 71 | 1009.9 |
| 20260503234104 | 16 | 354 | 9.7 | 27.4 | 0.00 | 0.66 | 0.00 | 72 | 1010.0 |
| 20260503233604 | 16 | 325 | 9.7 | 27.4 | 0.00 | 0.66 | 0.00 | 72 | 1010.0 |
| 20260503233110 | 16 | 334 | 8.0 | 25.7 | 0.00 | 0.69 | 0.00 | 72 | 1010.0 |
| 20260503232613 | 16 | 51 | 8.0 | 25.7 | 0.00 | 0.69 | 0.00 | 73 | 1010.0 |
| 20260503232100 | 16 | 39 | 9.7 | 25.7 | 0.00 | 0.69 | 0.00 | 73 | 1010.1 |
| 20260503231559 | 16 | 317 | 6.4 | 25.7 | 0.00 | 0.69 | 0.00 | 72 | 1010.1 |
| 20260503231109 | 16 | 314 | 4.8 | 16.1 | 0.00 | 0.69 | 0.00 | 73 | 1010.1 |
| 20260503225320 | 15 | 338 | 9.7 | 22.5 | 0.00 | 0.69 | 0.00 | 74 | 1010.2 |
| 20260503224806 | 15 | 356 | 8.0 | 19.3 | 0.00 | 0.69 | 0.00 | 74 | 1010.3 |
| 20260503224304 | 15 | 341 | 8.0 | 25.7 | 0.00 | 0.69 | 0.00 | 75 | 1010.2 |
| 20260503223806 | 15 | 2 | 9.7 | 25.7 | 0.00 | 0.69 | 0.00 | 75 | 1010.3 |
| 20260503223248 | 15 | 30 | 9.7 | 25.7 | 0.00 | 0.69 | 0.00 | 75 | 1010.3 |
| 20260503222110 | 15 | 343 | 6.4 | 20.9 | 0.00 | 0.69 | 0.00 | 75 | 1010.2 |
| 20260503220913 | 15 | 17 | 4.8 | 24.1 | 0.00 | 0.69 | 0.00 | 75 | 1010.3 |
| 20260503220412 | 14 | 313 | 6.4 | 24.1 | 0.00 | 0.69 | 0.00 | 76 | 1010.3 |
| 20260503215856 | 14 | 353 | 6.4 | 24.1 | 0.00 | 0.69 | 0.00 | 76 | 1010.3 |
| 20260503215342 | 14 | 44 | 6.4 | 17.7 | 0.00 | 0.69 | 0.00 | 76 | 1010.3 |
| 20260503214822 | 13 | 349 | 6.4 | 17.7 | 0.00 | 0.69 | 0.00 | 76 | 1010.3 |
| 20260503214308 | 13 | 68 | 4.8 | 16.1 | 0.00 | 0.69 | 0.00 | 76 | 1010.3 |
| 20260503213811 | 13 | 352 | 4.8 | 16.1 | 0.00 | 0.69 | 0.00 | 76 | 1010.2 |
| 20260503213252 | 13 | 50 | 4.8 | 16.1 | 0.00 | 0.69 | 0.00 | 75 | 1010.2 |
| 20260503212741 | 13 | 87 | 6.4 | 17.7 | 0.00 | 0.69 | 0.00 | 76 | 1010.2 |
| 20260503211549 | 13 | 25 | 6.4 | 17.7 | 0.00 | 0.69 | 0.00 | 77 | 1010.0 |
| 20260503211051 | 13 | 53 | 4.8 | 16.1 | 0.00 | 0.69 | 0.00 | 77 | 1010.1 |
| 20260503205316 | 13 | 42 | 3.2 | 11.3 | 0.00 | 0.69 | 0.00 | 78 | 1010.1 |
| 20260503204804 | 13 | 13 | 3.2 | 11.3 | 0.00 | 0.69 | 0.00 | 78 | 1010.0 |
| 20260503203021 | 13 | 1 | 4.8 | 20.9 | 0.00 | 0.69 | 0.00 | 79 | 1010.0 |
| 20260503202515 | 13 | 23 | 4.8 | 20.9 | 0.00 | 0.69 | 0.00 | 79 | 1009.9 |
| 20260503202022 | 13 | 354 | 3.2 | 12.9 | 0.00 | 0.69 | 0.00 | 80 | 1009.9 |
| 20260503201525 | 13 | 18 | 3.2 | 12.9 | 0.00 | 0.69 | 0.00 | 80 | 1009.9 |
| 20260503200336 | 13 | 8 | 3.2 | 11.3 | 0.00 | 0.69 | 0.00 | 81 | 1009.9 |
| 20260503195843 | 13 | 333 | 3.2 | 11.3 | 0.00 | 0.69 | 0.00 | 81 | 1009.8 |
| 20260503194740 | 13 | 358 | 1.6 | 12.9 | 0.00 | 0.69 | 0.00 | 81 | 1009.8 |
| 20260503194247 | 13 | 312 | 1.6 | 12.9 | 0.00 | 0.69 | 0.00 | 81 | 1010.0 |
| 20260503193129 | 13 | 16 | 3.2 | 12.9 | 0.00 | 0.69 | 0.00 | 81 | 1009.9 |
| 20260503192010 | 13 | 25 | 3.2 | 11.3 | 0.00 | 0.69 | 0.00 | 82 | 1009.9 |
| 20260503191508 | 13 | 43 | 3.2 | 11.3 | 0.00 | 0.69 | 0.00 | 82 | 1010.0 |
| 20260503191011 | 13 | 8 | 3.2 | 11.3 | 0.00 | 0.69 | 0.00 | 82 | 1010.1 |
| 20260503190514 | 13 | 299 | 3.2 | 11.3 | 0.00 | 0.69 | 0.00 | 81 | 1010.2 |
| 20260503190005 | 13 | 352 | 3.2 | 16.1 | 0.00 | 0.69 | 0.00 | 81 | 1010.2 |
| 20260503184854 | 13 | 2 | 6.4 | 17.7 | 0.00 | 0.69 | 0.00 | 81 | 1010.3 |
| 20260503184341 | 13 | 51 | 6.4 | 17.7 | 0.00 | 0.69 | 0.00 | 81 | 1010.3 |
| 20260503183848 | 13 | 333 | 4.8 | 17.7 | 0.00 | 0.69 | 0.00 | 81 | 1010.3 |
| 20260503181421 | 13 | 5 | 4.8 | 19.3 | 0.00 | 0.69 | 0.00 | 82 | 1010.4 |
| 20260503180921 | 13 | 40 | 6.4 | 19.3 | 0.00 | 0.69 | 0.00 | 82 | 1010.4 |
| 20260503180410 | 13 | 315 | 4.8 | 19.3 | 0.00 | 0.69 | 0.00 | 82 | 1010.5 |
| 20260503175918 | 13 | 4 | 4.8 | 17.7 | 0.00 | 0.69 | 0.00 | 82 | 1010.6 |
| 20260503175423 | 13 | 343 | 4.8 | 17.7 | 0.00 | 0.69 | 0.00 | 82 | 1010.6 |
| 20260503174927 | 13 | 315 | 6.4 | 17.7 | 0.00 | 0.69 | 0.00 | 82 | 1010.6 |
| 20260503174435 | 13 | 78 | 4.8 | 14.5 | 0.00 | 0.69 | 0.00 | 82 | 1010.7 |